[[{"header":{"parameterUnit":"m.s-1","parameterCategory":1,"la1":30.2991,"la2":30.254,"lo1":-89.0895,"lo2":-89.0444,"dy":0.0017,"dx":0.0017,"nx":28,"ny":28,"refTime":"2025-05-23T03:00:00:Z","depth":0,"parameterNumber":2,"parameterNumberName":"U-component_of_WINDS"},"data":[0,0,0,0,0,0,0,0,0,0,0,0,0,0,0,0,0,0,0,0,0,0,0,0,0,0,0,0,0,0,0,0,0,0,0,0,0,0,0,0,0,0,0,0,0,0,0,0,0,0,0,0,0,0,0,0,0,0,-0.077,-0.077,0,-0.0756,-0.0756,-0.0755,-0.0745,-0.0745,-0.0745,-0.0744,-0.0729,-0.0729,-0.0729,0,0,0,0,0,0,0,0,0,0,0,0,0,-0.079,-0.079,-0.077,-0.077,-0.077,-0.0756,-0.0756,-0.0755,-0.0745,-0.0745,-0.0745,-0.0744,-0.073,-0.0729,-0.0729,0,0,0,0,0,0,0,0,0,0,0,0,0,-0.0779,-0.079,-0.077,-0.0763,-0.0762,-0.0756,-0.0755,-0.0755,-0.0745,-0.0745,-0.0745,-0.0744,-0.073,-0.0729,-0.0729,-0.0728,0,0,-0.0727,-0.0727,0,0,0,0,0,0,0,0,-0.078,-0.0779,-0.0764,-0.0764,-0.0763,-0.0752,-0.0757,-0.0746,-0.0745,-0.0751,-0.0744,-0.0744,-0.0737,-0.0736,-0.0733,-0.0728,-0.0727,-0.0727,-0.0727,-0.0727,-0.0727,0,0,0,0,0,0,0,-0.0781,-0.0779,-0.0765,-0.0764,-0.0763,-0.0761,-0.0759,-0.0755,-0.0745,-0.0751,-0.075,-0.0748,-0.0737,-0.0734,-0.0733,-0.0727,-0.0727,-0.0727,-0.0727,-0.0726,-0.0721,-0.0721,0,0,0,0,0,0,-0.0783,-0.078,-0.0765,-0.0764,-0.0771,-0.0761,-0.0759,-0.0755,-0.0745,-0.0743,-0.0749,-0.0748,-0.0735,-0.0734,-0.0732,-0.0732,-0.0727,-0.0726,-0.0726,-0.0721,-0.0721,-0.0721,0,0,0,0,0,0,-0.0783,-0.0781,-0.0766,-0.0772,-0.077,-0.076,-0.0757,-0.0755,-0.0753,-0.0743,-0.0742,-0.0748,-0.0735,-0.0733,-0.073,-0.0731,-0.0726,-0.0726,-0.0721,-0.0721,-0.0721,-0.0731,0,0,0,0,0,0,-0.0784,-0.0782,-0.0781,-0.0772,-0.0769,-0.0763,-0.0757,-0.0755,-0.0752,-0.0751,-0.0742,-0.0741,-0.0734,-0.0731,-0.0729,-0.0731,-0.0725,-0.0721,-0.0721,-0.0721,-0.073,-0.0731,-0.0732,0,0,0,0,0,-0.0784,-0.0784,-0.0781,-0.0779,-0.0768,-0.0763,-0.0762,-0.0755,-0.0752,-0.0752,-0.0746,-0.0741,-0.0731,-0.073,-0.0729,-0.073,-0.0721,-0.0721,-0.0721,-0.073,-0.0731,-0.0732,0,0,0,0,0,0,-0.0793,-0.0783,-0.0779,-0.0776,-0.077,-0.0761,-0.076,-0.0756,-0.0751,-0.075,-0.0742,-0.074,-0.0738,-0.0734,-0.0732,-0.073,-0.0725,-0.0725,-0.0732,-0.0733,-0.0734,-0.0735,-0.0725,0,0,0,0,0,-0.0795,-0.0791,-0.0782,-0.078,-0.0778,-0.077,-0.0767,-0.0762,-0.0756,-0.0754,-0.0748,-0.0742,-0.0738,-0.0736,-0.0731,-0.073,-0.0728,-0.073,-0.0731,-0.0732,-0.0732,-0.0731,-0.0732,-0.0723,-0.0723,-0.0722,0,0,-0.0798,-0.0792,-0.079,-0.0782,-0.0777,-0.0774,-0.0768,-0.0764,-0.0762,-0.0753,-0.075,-0.0745,-0.0739,-0.0737,-0.0735,-0.0733,-0.0734,-0.0732,-0.0733,-0.0732,-0.0732,-0.0733,-0.0733,-0.0723,-0.0723,-0.0723,0,0,-0.0802,-0.0797,-0.0795,-0.0791,-0.0784,-0.0779,-0.0778,-0.077,-0.0767,-0.0763,-0.0757,-0.0754,-0.0747,-0.0743,-0.074,-0.0744,-0.0739,-0.0743,-0.0748,-0.0747,-0.0748,-0.0749,-0.0751,-0.0751,-0.0743,-0.0743,-0.0743,0,-0.0807,-0.0802,-0.0794,-0.0792,-0.0789,-0.0781,-0.078,-0.0776,-0.0768,-0.0766,-0.0764,-0.0755,-0.075,-0.0747,-0.0748,-0.0746,-0.0746,-0.0744,-0.0749,-0.0749,-0.075,-0.0751,-0.0752,-0.0744,-0.0744,-0.0743,-0.0743,0,-0.0808,-0.0805,-0.0804,-0.0797,-0.0794,-0.0791,-0.0784,-0.0782,-0.0778,-0.0774,-0.0771,-0.0765,-0.0759,-0.0758,-0.0754,-0.0755,-0.0754,-0.075,-0.0746,-0.0751,-0.0753,-0.0753,-0.0744,-0.0744,-0.0744,-0.0744,0,0,-0.0816,-0.0806,-0.0806,-0.0803,-0.0796,-0.0793,-0.0791,-0.0786,-0.0785,-0.078,-0.0778,-0.0773,-0.077,-0.0766,-0.0762,-0.0761,-0.0766,-0.0758,-0.0758,-0.076,-0.0767,-0.077,-0.0771,-0.0763,-0.0763,-0.0763,-0.0768,0,-0.0819,-0.0815,-0.0809,-0.0807,-0.0804,-0.0798,-0.0796,-0.0791,-0.0787,-0.0785,-0.078,-0.0777,-0.0773,-0.0771,-0.077,-0.0765,-0.0767,-0.0765,-0.0761,-0.0761,-0.0763,-0.0772,-0.0774,-0.0779,-0.0768,-0.0768,-0.0769,0,-0.0822,-0.0818,-0.0815,-0.0809,-0.0808,-0.0806,-0.0802,-0.0799,-0.0794,-0.0791,-0.0788,-0.0784,-0.0782,-0.0778,-0.0775,-0.0774,-0.0772,-0.077,-0.077,-0.0769,-0.0765,-0.0771,-0.078,-0.0781,-0.0769,-0.0769,-0.0769,0,-0.0829,-0.0823,-0.0821,-0.0818,-0.0811,-0.081,-0.0807,-0.0802,-0.08,-0.0796,-0.0795,-0.0791,-0.0789,-0.0786,-0.078,-0.0778,-0.0779,-0.0774,-0.0776,-0.0777,-0.0777,-0.0777,-0.0786,-0.0776,-0.0776,-0.0776,-0.0776,0,-0.0833,-0.0831,-0.0824,-0.0822,-0.0821,-0.0815,-0.0814,-0.081,-0.0806,-0.0805,-0.0799,-0.0798,-0.079,-0.0788,-0.0784,-0.0783,-0.0782,-0.078,-0.0779,-0.078,-0.0781,-0.0779,-0.0778,-0.0776,-0.0776,-0.0776,-0.0776,0,-0.084,-0.0834,-0.0832,-0.0825,-0.0824,-0.0823,-0.0818,-0.0817,-0.0813,-0.0811,-0.081,-0.0804,-0.0801,-0.0795,-0.0791,-0.0788,-0.0788,-0.0786,-0.079,-0.0789,-0.0792,-0.0792,-0.08,-0.0801,-0.079,-0.079,-0.0791,0,-0.0842,-0.0841,-0.0835,-0.0834,-0.0831,-0.0829,-0.0827,-0.0821,-0.0819,-0.0814,-0.0814,-0.0811,-0.0808,-0.0804,-0.0799,-0.0796,-0.0794,-0.0797,-0.0794,-0.0796,-0.0794,-0.0795,-0.0795,-0.0798,-0.0798,-0.0798,-0.0798,0,-0.0848,-0.0846,-0.0843,-0.084,-0.0837,-0.0835,-0.0831,-0.083,-0.0824,-0.0823,-0.082,-0.0818,-0.0814,-0.0811,-0.0808,-0.0805,-0.0801,-0.08,-0.08,-0.0802,-0.0804,-0.0803,-0.0792,-0.08,-0.0799,-0.0799,-0.0799,-0.0799,-0.0853,-0.0852,-0.0848,-0.0845,-0.0843,-0.084,-0.0839,-0.0835,-0.0833,-0.0829,-0.0826,-0.0824,-0.0821,-0.0815,-0.0813,-0.0811,-0.0809,-0.081,-0.081,-0.081,-0.0811,-0.0805,-0.0811,-0.0811,-0.0811,-0.0811,-0.0811,0,-0.0858,-0.0856,-0.0854,-0.085,-0.0848,-0.0845,-0.0841,-0.084,-0.0838,-0.0835,-0.0833,-0.083,-0.0828,-0.0824,-0.0821,-0.0821,-0.0819,-0.082,-0.082,-0.082,-0.0813,-0.0813,-0.0822,-0.0822,-0.0822,-0.0822,-0.0822,-0.0822,-0.0861,-0.086,-0.0857,-0.0855,-0.0852,-0.085,-0.0849,-0.0847,-0.0844,-0.0842,-0.084,-0.0837,-0.0834,-0.0831,-0.0829,-0.0828,-0.0827,-0.0829,-0.0828,-0.0821,-0.082,-0.0819,-0.0819,-0.0829,-0.0829,-0.0835,-0.0835,-0.0835]},{"header":{"parameterUnit":"m.s-1","parameterCategory":1,"la1":30.2991,"la2":30.254,"lo1":-89.0895,"lo2":-89.0444,"dy":0.0017,"dx":0.0017,"nx":28,"ny":28,"refTime":"2025-05-23T03:00:00:Z","depth":0,"parameterNumber":3,"parameterNumberName":"V-component_of_WINDS"},"data":[0,0,0,0,0,0,0,0,0,0,0,0,0,0,0,0,0,0,0,0,0,0,0,0,0,0,0,0,0,0,0,0,0,0,0,0,0,0,0,0,0,0,0,0,0,0,0,0,0,0,0,0,0,0,0,0,0,0,4.5671,4.5672,0,4.5734,4.5735,4.5735,4.5693,4.5691,4.569,4.5688,4.5749,4.5752,4.5755,0,0,0,0,0,0,0,0,0,0,0,0,0,4.5512,4.5515,4.5671,4.5672,4.5673,4.5734,4.5735,4.5735,4.5694,4.5691,4.5689,4.5687,4.5748,4.5752,4.5756,0,0,0,0,0,0,0,0,0,0,0,0,0,4.5578,4.5516,4.5671,4.5659,4.5659,4.5734,4.5735,4.5736,4.5694,4.5691,4.5688,4.5686,4.5746,4.5751,4.5756,4.5845,0,0,4.5772,4.5774,0,0,0,0,0,0,0,0,4.5575,4.5584,4.566,4.566,4.566,4.5703,4.5701,4.5772,4.5695,4.5681,4.5688,4.5684,4.5736,4.5741,4.5759,4.5848,4.585,4.5772,4.5775,4.5778,4.5779,0,0,0,0,0,0,0,4.557,4.5581,4.5696,4.5661,4.5661,4.565,4.5656,4.5714,4.5723,4.5682,4.5679,4.5687,4.5735,4.5755,4.576,4.5851,4.5772,4.5777,4.578,4.5782,4.6015,4.6018,0,0,0,0,0,0,4.5567,4.5578,4.5694,4.5698,4.561,4.5655,4.5662,4.5692,4.5723,4.5725,4.5689,4.5685,4.5747,4.5755,4.5762,4.5868,4.5778,4.5782,4.5785,4.6012,4.6016,4.6019,0,0,0,0,0,0,4.5564,4.5578,4.5691,4.5637,4.5651,4.5661,4.5695,4.5695,4.5714,4.5728,4.5729,4.5708,4.5745,4.5755,4.5825,4.587,4.5785,4.5789,4.6008,4.6013,4.6017,4.608,0,0,0,0,0,0,4.5559,4.5577,4.5612,4.5638,4.5654,4.5754,4.5698,4.5698,4.5724,4.5718,4.5746,4.5748,4.5744,4.5817,4.583,4.5875,4.5793,4.6004,4.601,4.6016,4.6074,4.6087,4.6097,0,0,0,0,0,4.5554,4.5626,4.5614,4.5628,4.5697,4.5757,4.5765,4.576,4.5727,4.5762,4.5771,4.5747,4.5863,4.5825,4.5839,4.5886,4.6001,4.6009,4.6015,4.6069,4.6084,4.6097,0,0,0,0,0,0,4.5603,4.5629,4.5616,4.5699,4.5726,4.575,4.5793,4.5776,4.5812,4.5806,4.5796,4.5803,4.5876,4.5888,4.5845,4.5973,4.5927,4.5937,4.5963,4.5977,4.5989,4.5984,4.5797,0,0,0,0,0,4.5624,4.5671,4.5691,4.5762,4.5777,4.5783,4.5808,4.5802,4.5829,4.584,4.5854,4.588,4.5922,4.595,4.599,4.6076,4.6081,4.6115,4.6126,4.6136,4.6145,4.619,4.6206,4.6042,4.6042,4.6042,0,0,4.5667,4.5687,4.5718,4.5773,4.5793,4.5841,4.5793,4.5845,4.588,4.5847,4.5915,4.5926,4.5954,4.6032,4.6067,4.6045,4.6191,4.6145,4.6152,4.6156,4.6199,4.6215,4.6229,4.6047,4.6046,4.6045,0,0,4.5771,4.5791,4.5853,4.5874,4.5906,4.5909,4.5924,4.595,4.5956,4.6024,4.6,4.6041,4.6114,4.6135,4.6156,4.6267,4.6246,4.628,4.634,4.6384,4.6397,4.6409,4.6448,4.6462,4.6289,4.6289,4.6289,0,4.582,4.5893,4.5886,4.5941,4.5966,4.5939,4.6001,4.6022,4.6064,4.6081,4.6055,4.6147,4.6164,4.6247,4.6274,4.6291,4.6307,4.6277,4.6396,4.6407,4.6418,4.6456,4.647,4.6293,4.6292,4.6292,4.6291,0,4.5952,4.6002,4.6048,4.6091,4.6121,4.6179,4.618,4.6211,4.6202,4.6208,4.6276,4.6296,4.6339,4.6358,4.6349,4.6439,4.6424,4.6397,4.6351,4.6438,4.6473,4.6487,4.6298,4.6297,4.6296,4.6295,0,0,4.6089,4.6127,4.6144,4.6163,4.6196,4.6234,4.629,4.6334,4.636,4.639,4.6437,4.6499,4.6474,4.6498,4.6491,4.653,4.6617,4.6498,4.6499,4.652,4.6717,4.6737,4.6754,4.6603,4.6606,4.6608,4.6715,0,4.6194,4.6294,4.629,4.6382,4.6428,4.6403,4.6452,4.6477,4.6484,4.6523,4.6529,4.6574,4.6538,4.6552,4.659,4.6598,4.6656,4.659,4.6646,4.6648,4.664,4.6772,4.6794,4.6894,4.6728,4.6731,4.6732,0,4.6331,4.6366,4.6464,4.649,4.6509,4.6553,4.6592,4.663,4.6657,4.6659,4.6685,4.6672,4.6728,4.6679,4.6756,4.6711,4.6733,4.6741,4.6744,4.6749,4.6695,4.6781,4.6925,4.694,4.6754,4.6752,4.675,0,4.6421,4.6493,4.6561,4.6578,4.6609,4.6641,4.6655,4.6679,4.6706,4.6739,4.6756,4.6795,4.6817,4.6847,4.6844,4.6809,4.6922,4.6873,4.6924,4.6925,4.695,4.6948,4.71,4.6964,4.6963,4.6963,4.6963,0,4.6539,4.66,4.6602,4.6644,4.6711,4.6704,4.677,4.6781,4.6803,4.6845,4.6825,4.6866,4.6859,4.6899,4.6897,4.6961,4.697,4.6973,4.6972,4.6975,4.6975,4.699,4.6983,4.6967,4.6966,4.6965,4.6965,0,4.6652,4.6655,4.6728,4.6752,4.6759,4.6807,4.6827,4.6866,4.6871,4.6925,4.6937,4.6944,4.699,4.699,4.7043,4.7041,4.7119,4.711,4.711,4.7109,4.716,4.7155,4.7326,4.7348,4.7198,4.7199,4.7201,0,4.6727,4.6774,4.6802,4.683,4.6847,4.6891,4.6918,4.6913,4.6941,4.6975,4.701,4.7054,4.709,4.7164,4.7173,4.7213,4.7204,4.7262,4.721,4.7212,4.7205,4.7203,4.7207,4.7272,4.7273,4.7275,4.7276,0,4.6861,4.686,4.69,4.6941,4.6974,4.7005,4.7034,4.7057,4.7055,4.7088,4.7135,4.7163,4.7216,4.726,4.7299,4.7312,4.7294,4.7292,4.7306,4.731,4.7308,4.731,4.7138,4.7288,4.7287,4.7286,4.7285,4.7285,4.6957,4.6997,4.7024,4.7069,4.709,4.7118,4.7155,4.7165,4.7205,4.7249,4.7243,4.7295,4.732,4.737,4.7387,4.7427,4.7407,4.7427,4.7432,4.7437,4.7443,4.7302,4.7434,4.7433,4.7433,4.7433,4.7433,0,4.709,4.7106,4.7147,4.7189,4.7224,4.7204,4.7235,4.7265,4.7312,4.7338,4.7373,4.7427,4.7469,4.7482,4.7522,4.7552,4.7545,4.7563,4.7561,4.7564,4.7459,4.7443,4.7568,4.7568,4.7568,4.7568,4.7568,4.7568,4.7163,4.723,4.7232,4.7309,4.7324,4.7376,4.7395,4.742,4.744,4.7501,4.7537,4.7545,4.7565,4.7607,4.7645,4.7647,4.7663,4.7685,4.7684,4.7585,4.7572,4.7559,4.7543,4.7688,4.7688,4.7786,4.7787,4.7787]}]]